Location: �terpigny
(49.8910°N, 2.9249°E)
Time: 12:57:16
(UTC+00:00)

YAOGAN 1 - Pass Details

Date: 24 October 2021
Orbit: 618 x 620 km, 97.9° (Epoch: 05 December)

Event Time Altitude Azimuth Distance (km) Brightness Sun altitude
Rises 18:43:34 0° 174° (S) 2,885 5.9 -20.6°
Reaches altitude 10° 18:45:46 10° 178° (S) 1,984 5.1 -20.9°
Maximum altitude 18:50:02 61° 258° (WSW) 710 3.0 -21.6°
Drops below altitude 10° 18:54:21 10° 340° (NNW) 2,000 5.5 -22.3°
Sets 18:56:34 0° 344° (NNW) 2,911 6.3 -22.7°
